This demonstration page uses our WeatherBlox Daily Observations layout. Learn more.

Left ArrowRight Arrow

Hourly Observations for May 17, 2019

Temp ( °F °C ) Dew Point ( °F °C ) Humidity (%) Winds ( mph kmh ) Pressure ( in mb ) Visibility ( mi km ) Precip ( " mm )
12:52 am 00:52 Clear 66 18.9 59 15 78 78 S 8 13 29.84 1010 10 16 0.00 0.00
1:52 am 01:52 Clear 66 18.9 59 15 78 78 S 8 13 29.84 1010 10 16 0.00 0.00
2:52 am 02:52 Clear 65 18.3 59 15 81 81 S 9 15 29.83 1010 10 16 0.00 0.00
3:52 am 03:52 Clear 64 17.8 59 15 84 84 S 9 15 29.83 1010 10 16 0.00 0.00
4:52 am 04:52 Clear 65 18.3 59 15 81 81 S 10 17 29.83 1010 10 16 0.00 0.00
5:52 am 05:52 Clear 63 17.2 58 14.4 84 84 S 9 15 29.83 1010 10 16 0.00 0.00
6:52 am 06:52 Sunny 64 17.8 58 14.4 81 81 S 9 15 29.83 1010 10 16 0.00 0.00
7:52 am 07:52 Sunny 67 19.4 59 15 76 76 S 10 17 29.84 1011 10 16 0.00 0.00
8:52 am 08:52 Sunny 71 21.7 61 16.1 71 71 S 12 19 29.85 1011 10 16 0.00 0.00
9:52 am 09:52 Sunny 75 23.9 62 16.7 64 64 SSW 10 17 29.86 1011 10 16 0.00 0.00
10:52 am 10:52 Sunny 78 25.6 64 17.8 62 62 SSW 14 22 29.86 1011 10 16 0.00 0.00
11:52 am 11:52 Sunny 79 26.1 63 17.2 58 58 S 13 20 29.85 1011 10 16 0.00 0.00
12:52 pm 12:52 Sunny 81 27.2 62 16.7 53 53 S 17 28 29.84 1011 10 16 0.00 0.00
1:52 pm 13:52 Mostly Sunny 81 27.2 62 16.7 53 53 SSW 15 24 29.83 1010 10 16 0.00 0.00
2:52 pm 14:52 Sunny 83 28.3 61 16.1 48 48 S 20 31 29.81 1010 10 16 0.00 0.00
3:52 pm 15:52 Mostly Sunny 84 28.9 60 15.6 44 44 SSW 21 33 29.79 1009 10 16 0.00 0.00
4:52 pm 16:52 Sunny 83 28.3 57 13.9 41 41 S 20 31 29.78 1009 10 16 0.00 0.00
5:52 pm 17:52 Sunny 82 27.8 56 13.3 41 41 S 17 28 29.77 1008 10 16 0.00 0.00
6:52 pm 18:52 Sunny 79 26.1 57 13.9 47 47 S 13 20 29.76 1008 10 16 0.00 0.00
7:52 pm 19:52 Sunny 76 24.4 58 14.4 54 54 S 10 17 29.76 1008 10 16 0.00 0.00
8:52 pm 20:52 Clear 74 23.3 55 12.8 52 52 S 9 15 29.76 1008 10 16 0.00 0.00
9:52 pm 21:52 Clear 73 22.8 56 13.3 55 55 SSE 12 19 29.77 1008 10 16 0.00 0.00
10:52 pm 22:52 Clear 71 21.7 55 12.8 57 57 SSE 12 19 29.76 1008 10 16 0.00 0.00
11:52 pm 23:52 Clear 70 21.1 55 12.8 59 59 SSE 13 20 29.75 1008 10 16 0.00 0.00

Powered by AerisWeather